Time,TemperatureF,DewpointF,PressureIn,WindDirection,WindDirectionDegrees,WindSpeedMPH,WindSpeedGustMPH,Humidity,HourlyPrecipIn,Conditions,Clouds,dailyrainin,SolarRadiationWatts/m^2,SoftwareType,DateUTC
2013-07-23 00:00:00,66.1,28.2,29.61,SE,135,0.0,1.0,24,0.00,,,-99.99,0,WeatherLink 5.7,2013-07-23 06:00:00,
2013-07-23 00:10:00,65.5,27.7,29.61,ESE,112,0.0,1.0,24,0.00,,,-99.99,0,WeatherLink 5.7,2013-07-23 06:10:00,
2013-07-23 00:20:00,65.8,26.9,29.59,East,90,0.0,1.0,23,0.00,,,-99.99,0,WeatherLink 5.7,2013-07-23 06:20:00,
2013-07-23 00:25:00,65.5,28.7,29.59,ESE,112,0.0,2.0,25,0.00,,,-99.99,0,WeatherLink 5.7,2013-07-23 06:25:00,
2013-07-23 00:40:00,64.5,27.9,29.60,East,90,0.0,1.0,25,0.00,,,-99.99,0,WeatherLink 5.7,2013-07-23 06:40:00,
2013-07-23 00:45:00,64.2,27.6,29.60,East,90,0.0,3.0,25,0.00,,,-99.99,0,WeatherLink 5.7,2013-07-23 06:45:00,
2013-07-23 01:00:00,63.6,30.7,29.61,East,90,1.0,3.0,29,0.00,,,-99.99,0,WeatherLink 5.7,2013-07-23 07:00:00,
2013-07-23 01:10:00,62.8,29.2,29.62,ESE,112,1.0,4.0,28,0.00,,,-99.99,0,WeatherLink 5.7,2013-07-23 07:10:00,
2013-07-23 01:20:00,62.9,29.3,29.61,ESE,112,0.0,1.0,28,0.00,,,-99.99,0,WeatherLink 5.7,2013-07-23 07:20:00,
2013-07-23 01:35:00,61.8,29.2,29.62,East,90,0.0,4.0,29,0.00,,,-99.99,0,WeatherLink 5.7,2013-07-23 07:35:00,
2013-07-23 01:50:00,62.1,27.7,29.63,SE,135,0.0,4.0,27,0.00,,,-99.99,0,WeatherLink 5.7,2013-07-23 07:50:00,
2013-07-23 02:00:00,61.5,28.1,29.63,SE,135,0.0,1.0,28,0.00,,,-99.99,0,WeatherLink 5.7,2013-07-23 08:00:00,
2013-07-23 02:10:00,61.3,29.6,29.63,East,90,1.0,3.0,30,0.00,,,-99.99,0,WeatherLink 5.7,2013-07-23 08:10:00,
2013-07-23 02:20:00,59.9,30.7,29.63,East,90,1.0,4.0,33,0.00,,,-99.99,0,WeatherLink 5.7,2013-07-23 08:20:00,
2013-07-23 02:30:00,59.5,31.8,29.63,East,90,0.0,3.0,35,0.00,,,-99.99,0,WeatherLink 5.7,2013-07-23 08:30:00,
2013-07-23 02:40:00,59.2,30.1,29.65,ESE,112,0.0,1.0,33,0.00,,,-99.99,0,WeatherLink 5.7,2013-07-23 08:40:00,
2013-07-23 02:55:00,59.2,31.5,29.65,ESE,112,0.0,3.0,35,0.00,,,-99.99,0,WeatherLink 5.7,2013-07-23 08:55:00,
2013-07-23 03:00:00,58.0,33.2,29.65,East,90,0.0,1.0,39,0.00,,,-99.99,0,WeatherLink 5.7,2013-07-23 09:00:00,
2013-07-23 03:10:00,57.5,32.1,29.65,East,90,0.0,3.0,38,0.00,,,-99.99,0,WeatherLink 5.7,2013-07-23 09:10:00,
2013-07-23 03:20:00,57.0,31.0,29.66,East,90,0.0,1.0,37,0.00,,,-99.99,0,WeatherLink 5.7,2013-07-23 09:20:00,
2013-07-23 03:30:00,57.0,30.3,29.66,ESE,112,0.0,1.0,36,0.00,,,-99.99,0,WeatherLink 5.7,2013-07-23 09:30:00,
2013-07-23 03:45:00,57.0,31.0,29.66,ESE,112,0.0,2.0,37,0.00,,,-99.99,0,WeatherLink 5.7,2013-07-23 09:45:00,
2013-07-23 03:55:00,56.6,29.9,29.67,East,90,1.0,3.0,36,0.00,,,-99.99,0,WeatherLink 5.7,2013-07-23 09:55:00,
2013-07-23 04:00:00,56.3,29.7,29.69,East,90,0.0,1.0,36,0.00,,,-99.99,0,WeatherLink 5.7,2013-07-23 10:00:00,
2013-07-23 04:15:00,55.9,31.3,29.69,East,90,0.0,1.0,39,0.00,,,-99.99,0,WeatherLink 5.7,2013-07-23 10:15:00,
2013-07-23 04:25:00,55.4,30.8,29.69,East,90,1.0,4.0,39,0.00,,,-99.99,0,WeatherLink 5.7,2013-07-23 10:25:00,
2013-07-23 04:30:00,55.3,32.0,29.69,East,90,0.0,4.0,41,0.00,,,-99.99,0,WeatherLink 5.7,2013-07-23 10:30:00,
2013-07-23 04:45:00,54.7,31.4,29.69,East,90,0.0,1.0,41,0.00,,,-99.99,0,WeatherLink 5.7,2013-07-23 10:45:00,
2013-07-23 04:50:00,54.5,31.3,29.71,East,90,0.0,2.0,41,0.00,,,-99.99,0,WeatherLink 5.7,2013-07-23 10:50:00,
2013-07-23 04:55:00,53.8,31.8,29.71,East,90,1.0,4.0,43,0.00,,,-99.99,0,WeatherLink 5.7,2013-07-23 10:55:00,
2013-07-23 05:00:00,53.8,33.5,29.70,East,90,0.0,1.0,46,0.00,,,-99.99,0,WeatherLink 5.7,2013-07-23 11:00:00,
2013-07-23 05:10:00,53.2,33.5,29.70,East,90,0.0,1.0,47,0.00,,,-99.99,0,WeatherLink 5.7,2013-07-23 11:10:00,
2013-07-23 05:20:00,53.0,32.2,29.72,East,90,0.0,1.0,45,0.00,,,-99.99,0,WeatherLink 5.7,2013-07-23 11:20:00,
2013-07-23 05:30:00,52.5,33.4,29.72,East,90,0.0,1.0,48,0.00,,,-99.99,0,WeatherLink 5.7,2013-07-23 11:30:00,
2013-07-23 05:40:00,51.9,32.3,29.72,East,90,0.0,1.0,47,0.00,,,-99.99,0,WeatherLink 5.7,2013-07-23 11:40:00,
2013-07-23 05:50:00,52.2,32.0,29.73,SE,135,0.0,3.0,46,0.00,,,-99.99,0,WeatherLink 5.7,2013-07-23 11:50:00,
2013-07-23 05:55:00,52.5,32.3,29.73,SSE,157,0.0,2.0,46,0.00,,,-99.99,0,WeatherLink 5.7,2013-07-23 11:55:00,
2013-07-23 06:00:00,51.7,32.1,29.74,ESE,112,0.0,2.0,47,0.00,,,-99.99,0,WeatherLink 5.7,2013-07-23 12:00:00,
2013-07-23 06:15:00,51.4,31.8,29.74,ESE,112,0.0,1.0,47,0.00,,,-99.99,0,WeatherLink 5.7,2013-07-23 12:15:00,
2013-07-23 06:20:00,51.1,32.1,29.77,North,-999,0.0,0.0,48,0.00,,,-99.99,5,WeatherLink 5.7,2013-07-23 12:20:00,
2013-07-23 06:30:00,51.0,31.5,29.77,ESE,112,0.0,1.0,47,0.00,,,-99.99,12,WeatherLink 5.7,2013-07-23 12:30:00,
2013-07-23 06:40:00,51.0,32.0,29.77,ESE,112,0.0,3.0,48,0.00,,,-99.99,14,WeatherLink 5.7,2013-07-23 12:40:00,
2013-07-23 06:50:00,50.8,32.8,29.77,East,90,0.0,1.0,50,0.00,,,-99.99,23,WeatherLink 5.7,2013-07-23 12:50:00,
2013-07-23 07:00:00,50.8,32.3,29.77,East,90,0.0,1.0,49,0.00,,,-99.99,26,WeatherLink 5.7,2013-07-23 13:00:00,
2013-07-23 07:10:00,50.8,32.3,29.78,East,90,1.0,3.0,49,0.00,,,-99.99,30,WeatherLink 5.7,2013-07-23 13:10:00,
2013-07-23 07:20:00,50.8,33.3,29.82,East,90,1.0,4.0,51,0.00,,,-99.99,40,WeatherLink 5.7,2013-07-23 13:20:00,
2013-07-23 07:30:00,50.7,34.2,29.82,East,90,1.0,3.0,53,0.00,,,-99.99,42,WeatherLink 5.7,2013-07-23 13:30:00,
2013-07-23 07:35:00,50.5,34.5,29.82,East,90,0.0,3.0,54,0.00,,,-99.99,44,WeatherLink 5.7,2013-07-23 13:35:00,
2013-07-23 07:45:00,51.7,33.6,29.82,East,90,0.0,1.0,50,0.00,,,-99.99,144,WeatherLink 5.7,2013-07-23 13:45:00,
2013-07-23 07:55:00,52.6,33.5,29.82,East,90,0.0,2.0,48,0.00,,,-99.99,194,WeatherLink 5.7,2013-07-23 13:55:00,
2013-07-23 08:00:00,54.8,33.3,29.80,East,90,0.0,2.0,44,0.00,,,-99.99,294,WeatherLink 5.7,2013-07-23 14:00:00,
2013-07-23 08:10:00,56.0,33.8,29.80,East,90,0.0,3.0,43,0.00,,,-99.99,316,WeatherLink 5.7,2013-07-23 14:10:00,
2013-07-23 08:15:00,57.0,35.3,29.80,East,90,0.0,1.0,44,0.00,,,-99.99,369,WeatherLink 5.7,2013-07-23 14:15:00,
2013-07-23 08:25:00,59.9,32.2,29.82,ESE,112,0.0,3.0,35,0.00,,,-99.99,362,WeatherLink 5.7,2013-07-23 14:25:00,
2013-07-23 08:35:00,60.4,33.3,29.81,ESE,112,0.0,3.0,36,0.00,,,-99.99,386,WeatherLink 5.7,2013-07-23 14:35:00,
2013-07-23 08:50:00,62.6,33.8,29.80,East,90,0.0,3.0,34,0.00,,,-99.99,454,WeatherLink 5.7,2013-07-23 14:50:00,
2013-07-23 08:55:00,62.8,33.2,29.80,East,90,0.0,3.0,33,0.00,,,-99.99,285,WeatherLink 5.7,2013-07-23 14:55:00,
2013-07-23 09:00:00,61.7,32.3,29.80,East,90,1.0,4.0,33,0.00,,,-99.99,244,WeatherLink 5.7,2013-07-23 15:00:00,
2013-07-23 09:10:00,61.8,33.1,29.80,East,90,0.0,3.0,34,0.00,,,-99.99,380,WeatherLink 5.7,2013-07-23 15:10:00,
2013-07-23 09:20:00,62.9,34.1,29.81,East,90,1.0,4.0,34,0.00,,,-99.99,577,WeatherLink 5.7,2013-07-23 15:20:00,
2013-07-23 09:25:00,63.9,32.6,29.81,East,90,1.0,4.0,31,0.00,,,-99.99,609,WeatherLink 5.7,2013-07-23 15:25:00,
2013-07-23 09:35:00,65.3,33.9,29.79,East,90,1.0,5.0,31,0.00,,,-99.99,547,WeatherLink 5.7,2013-07-23 15:35:00,
2013-07-23 09:45:00,66.1,33.7,29.79,East,90,1.0,4.0,30,0.00,,,-99.99,671,WeatherLink 5.7,2013-07-23 15:45:00,
2013-07-23 09:50:00,66.6,33.3,29.77,East,90,1.0,4.0,29,0.00,,,-99.99,536,WeatherLink 5.7,2013-07-23 15:50:00,
2013-07-23 10:00:00,69.3,35.7,29.75,East,90,0.0,1.0,29,0.00,,,-99.99,565,WeatherLink 5.7,2013-07-23 16:00:00,
2013-07-23 10:10:00,70.3,34.7,29.75,East,90,0.0,4.0,27,0.00,,,-99.99,549,WeatherLink 5.7,2013-07-23 16:10:00,
2013-07-23 10:20:00,70.6,33.0,29.76,East,90,0.0,4.0,25,0.00,,,-99.99,577,WeatherLink 5.7,2013-07-23 16:20:00,
2013-07-23 10:30:00,72.9,32.9,29.74,East,90,0.0,4.0,23,0.00,,,-99.99,802,WeatherLink 5.7,2013-07-23 16:30:00,
2013-07-23 10:40:00,74.3,34.1,29.74,ESE,112,0.0,1.0,23,0.00,,,-99.99,670,WeatherLink 5.7,2013-07-23 16:40:00,
2013-07-23 10:50:00,75.3,34.9,29.73,ESE,112,0.0,3.0,23,0.00,,,-99.99,641,WeatherLink 5.7,2013-07-23 16:50:00,
2013-07-23 10:55:00,75.5,35.1,29.73,ESE,112,0.0,1.0,23,0.00,,,-99.99,671,WeatherLink 5.7,2013-07-23 16:55:00,
2013-07-23 11:00:00,76.7,32.6,29.70,East,90,0.0,1.0,20,0.00,,,-99.99,843,WeatherLink 5.7,2013-07-23 17:00:00,
2013-07-23 11:10:00,77.1,32.9,29.70,East,90,0.0,1.0,20,0.00,,,-99.99,873,WeatherLink 5.7,2013-07-23 17:10:00,
2013-07-23 11:20:00,79.6,32.3,29.71,ESE,112,0.0,1.0,18,0.00,,,-99.99,901,WeatherLink 5.7,2013-07-23 17:20:00,
2013-07-23 11:30:00,79.3,30.7,29.71,East,90,0.0,1.0,17,0.00,,,-99.99,870,WeatherLink 5.7,2013-07-23 17:30:00,
2013-07-23 11:40:00,80.8,36.0,29.69,East,90,0.0,1.0,20,0.00,,,-99.99,951,WeatherLink 5.7,2013-07-23 17:40:00,
2013-07-23 11:55:00,81.7,31.1,29.68,ENE,67,0.0,1.0,16,0.00,,,-99.99,959,WeatherLink 5.7,2013-07-23 17:55:00,
2013-07-23 12:00:00,83.5,31.0,29.65,ENE,67,0.0,1.0,15,0.00,,,-99.99,989,WeatherLink 5.7,2013-07-23 18:00:00,
2013-07-23 12:10:00,84.4,28.2,29.65,North,-999,0.0,0.0,13,0.00,,,-99.99,986,WeatherLink 5.7,2013-07-23 18:10:00,
2013-07-23 12:25:00,85.4,30.8,29.66,ENE,67,0.0,1.0,14,0.00,,,-99.99,999,WeatherLink 5.7,2013-07-23 18:25:00,
2013-07-23 12:30:00,86.7,31.8,29.66,ENE,67,0.0,1.0,14,0.00,,,-99.99,994,WeatherLink 5.7,2013-07-23 18:30:00,
2013-07-23 12:40:00,87.5,26.5,29.64,SSE,157,0.0,1.0,11,0.00,,,-99.99,1019,WeatherLink 5.7,2013-07-23 18:40:00,
2013-07-23 12:50:00,87.9,32.7,29.63,SE,135,0.0,1.0,14,0.00,,,-99.99,965,WeatherLink 5.7,2013-07-23 18:50:00,
2013-07-23 12:55:00,88.5,27.3,29.63,East,90,0.0,1.0,11,0.00,,,-99.99,1025,WeatherLink 5.7,2013-07-23 18:55:00,
2013-07-23 13:00:00,88.5,33.2,29.62,East,90,0.0,3.0,14,0.00,,,-99.99,1030,WeatherLink 5.7,2013-07-23 19:00:00,
2013-07-23 13:10:00,89.2,33.8,29.62,SE,135,0.0,1.0,14,0.00,,,-99.99,1018,WeatherLink 5.7,2013-07-23 19:10:00,
2013-07-23 13:25:00,90.2,30.7,29.61,SE,135,0.0,1.0,12,0.00,,,-99.99,1077,WeatherLink 5.7,2013-07-23 19:25:00,
2013-07-23 13:40:00,91.3,33.6,29.59,SE,135,1.0,7.0,13,0.00,,,-99.99,958,WeatherLink 5.7,2013-07-23 19:40:00,
2013-07-23 13:45:00,91.1,29.3,29.59,SSW,202,0.0,1.0,11,0.00,,,-99.99,683,WeatherLink 5.7,2013-07-23 19:45:00,
2013-07-23 13:55:00,91.1,33.4,29.59,SW,225,0.0,1.0,13,0.00,,,-99.99,1054,WeatherLink 5.7,2013-07-23 19:55:00,
2013-07-23 14:00:00,92.4,36.3,29.57,North,-999,0.0,0.0,14,0.00,,,-99.99,572,WeatherLink 5.7,2013-07-23 20:00:00,
2013-07-23 14:10:00,92.2,37.9,29.57,North,0,0.0,1.0,15,0.00,,,-99.99,683,WeatherLink 5.7,2013-07-23 20:10:00,
2013-07-23 14:20:00,92.0,32.1,29.58,North,-999,0.0,0.0,12,0.00,,,-99.99,614,WeatherLink 5.7,2013-07-23 20:20:00,
2013-07-23 14:25:00,92.0,32.1,29.58,West,270,0.0,4.0,12,0.00,,,-99.99,571,WeatherLink 5.7,2013-07-23 20:25:00,
2013-07-23 14:40:00,92.4,30.3,29.59,WSW,247,3.0,7.0,11,0.00,,,-99.99,988,WeatherLink 5.7,2013-07-23 20:40:00,
2013-07-23 14:55:00,92.2,32.3,29.58,WSW,247,0.0,3.0,12,0.00,,,-99.99,596,WeatherLink 5.7,2013-07-23 20:55:00,
2013-07-23 15:00:00,92.4,36.3,29.58,SE,135,0.0,4.0,14,0.00,,,-99.99,513,WeatherLink 5.7,2013-07-23 21:00:00,
2013-07-23 15:10:00,93.5,31.1,29.57,WSW,247,0.0,3.0,11,0.00,,,-99.99,609,WeatherLink 5.7,2013-07-23 21:10:00,
2013-07-23 15:20:00,92.0,34.1,29.57,East,90,1.0,6.0,13,0.00,,,-99.99,575,WeatherLink 5.7,2013-07-23 21:20:00,
2013-07-23 15:30:00,91.3,31.6,29.57,East,90,1.0,6.0,12,0.00,,,-99.99,569,WeatherLink 5.7,2013-07-23 21:30:00,
2013-07-23 15:45:00,93.5,31.1,29.57,SSW,202,0.0,1.0,11,0.00,,,-99.99,923,WeatherLink 5.7,2013-07-23 21:45:00,
2013-07-23 15:50:00,93.3,31.0,29.57,SE,135,1.0,5.0,11,0.00,,,-99.99,855,WeatherLink 5.7,2013-07-23 21:50:00,
2013-07-23 16:00:00,92.4,36.3,29.57,East,90,1.0,7.0,14,0.00,,,-99.99,754,WeatherLink 5.7,2013-07-23 22:00:00,
2013-07-23 16:10:00,94.2,31.6,29.55,SW,225,0.0,1.0,11,0.00,,,-99.99,277,WeatherLink 5.7,2013-07-23 22:10:00,
2013-07-23 16:20:00,94.0,29.1,29.56,West,270,0.0,3.0,10,0.00,,,-99.99,360,WeatherLink 5.7,2013-07-23 22:20:00,
2013-07-23 16:30:00,93.5,35.3,29.56,NW,315,0.0,4.0,13,0.00,,,-99.99,289,WeatherLink 5.7,2013-07-23 22:30:00,
2013-07-23 16:40:00,92.9,40.1,29.56,North,-999,0.0,0.0,16,0.00,,,-99.99,318,WeatherLink 5.7,2013-07-23 22:40:00,
2013-07-23 16:45:00,92.4,32.4,29.56,NE,45,0.0,1.0,12,0.00,,,-99.99,374,WeatherLink 5.7,2013-07-23 22:45:00,
2013-07-23 17:00:00,93.1,35.0,29.56,NNW,337,0.0,1.0,13,0.00,,,-99.99,244,WeatherLink 5.7,2013-07-23 23:00:00,
2013-07-23 17:10:00,93.1,33.0,29.56,NNW,337,0.0,6.0,12,0.00,,,-99.99,513,WeatherLink 5.7,2013-07-23 23:10:00,
2013-07-23 17:20:00,93.5,33.3,29.56,NNW,337,0.0,1.0,12,0.00,,,-99.99,253,WeatherLink 5.7,2013-07-23 23:20:00,
2013-07-23 17:25:00,93.7,31.3,29.56,WSW,247,0.0,2.0,11,0.00,,,-99.99,344,WeatherLink 5.7,2013-07-23 23:25:00,
2013-07-23 17:40:00,94.0,33.7,29.57,NNW,337,0.0,1.0,12,0.00,,,-99.99,142,WeatherLink 5.7,2013-07-23 23:40:00,
2013-07-23 17:45:00,93.1,35.0,29.57,North,-999,0.0,0.0,13,0.00,,,-99.99,121,WeatherLink 5.7,2013-07-23 23:45:00,
2013-07-23 17:55:00,92.2,32.3,29.58,NNW,337,1.0,4.0,12,0.00,,,-99.99,241,WeatherLink 5.7,2013-07-23 23:55:00,
2013-07-23 18:00:00,91.8,32.0,29.58,NW,315,1.0,7.0,12,0.00,,,-99.99,201,WeatherLink 5.7,2013-07-24 00:00:00,
2013-07-23 18:15:00,90.4,28.7,29.59,West,270,1.0,6.0,11,0.00,,,-99.99,173,WeatherLink 5.7,2013-07-24 00:15:00,
2013-07-23 18:20:00,90.2,28.6,29.60,NW,315,3.0,11.0,11,0.00,,,-99.99,164,WeatherLink 5.7,2013-07-24 00:20:00,
2013-07-23 18:25:00,90.0,28.4,29.60,NW,315,2.0,7.0,11,0.00,,,-99.99,124,WeatherLink 5.7,2013-07-24 00:25:00,
2013-07-23 18:35:00,89.8,28.3,29.60,NW,315,1.0,4.0,11,0.00,,,-99.99,116,WeatherLink 5.7,2013-07-24 00:35:00,
2013-07-23 18:45:00,89.4,32.1,29.60,NW,315,0.0,4.0,13,0.00,,,-99.99,124,WeatherLink 5.7,2013-07-24 00:45:00,
2013-07-23 19:00:00,88.7,31.5,29.60,North,-999,0.0,0.0,13,0.00,,,-99.99,99,WeatherLink 5.7,2013-07-24 01:00:00,
2013-07-23 19:10:00,88.3,29.2,29.60,NNW,337,0.0,1.0,12,0.00,,,-99.99,90,WeatherLink 5.7,2013-07-24 01:10:00,
2013-07-23 19:20:00,87.3,32.3,29.59,North,-999,0.0,0.0,14,0.00,,,-99.99,87,WeatherLink 5.7,2013-07-24 01:20:00,
2013-07-23 19:25:00,87.1,32.1,29.59,North,-999,0.0,0.0,14,0.00,,,-99.99,74,WeatherLink 5.7,2013-07-24 01:25:00,
2013-07-23 19:35:00,86.0,34.6,29.59,North,-999,0.0,0.0,16,0.00,,,-99.99,62,WeatherLink 5.7,2013-07-24 01:35:00,
2013-07-23 19:45:00,85.4,32.5,29.59,North,-999,0.0,0.0,15,0.00,,,-99.99,57,WeatherLink 5.7,2013-07-24 01:45:00,
2013-07-23 19:50:00,85.0,32.2,29.61,North,-999,0.0,0.0,15,0.00,,,-99.99,44,WeatherLink 5.7,2013-07-24 01:50:00,
2013-07-23 19:55:00,84.4,34.8,29.61,WNW,292,0.0,1.0,17,0.00,,,-99.99,30,WeatherLink 5.7,2013-07-24 01:55:00,
2013-07-23 20:05:00,83.3,35.4,29.63,North,-999,0.0,0.0,18,0.00,,,-99.99,25,WeatherLink 5.7,2013-07-24 02:05:00,
2013-07-23 20:20:00,82.7,33.4,29.59,North,-999,0.0,0.0,17,0.00,,,-99.99,16,WeatherLink 5.7,2013-07-24 02:20:00,
2013-07-23 20:35:00,81.7,34.1,29.60,East,90,0.0,3.0,18,0.00,,,-99.99,0,WeatherLink 5.7,2013-07-24 02:35:00,
2013-07-23 20:40:00,81.1,33.6,29.60,East,90,0.0,1.0,18,0.00,,,-99.99,0,WeatherLink 5.7,2013-07-24 02:40:00,
2013-07-23 20:50:00,80.9,32.0,29.62,ESE,112,0.0,1.0,17,0.00,,,-99.99,0,WeatherLink 5.7,2013-07-24 02:50:00,
2013-07-23 20:55:00,80.2,32.8,29.62,East,90,1.0,3.0,18,0.00,,,-99.99,0,WeatherLink 5.7,2013-07-24 02:55:00,
2013-07-23 21:10:00,79.5,30.8,29.63,East,90,1.0,3.0,17,0.00,,,-99.99,0,WeatherLink 5.7,2013-07-24 03:10:00,
2013-07-23 21:25:00,79.6,30.9,29.61,SE,135,1.0,5.0,17,0.00,,,-99.99,0,WeatherLink 5.7,2013-07-24 03:25:00,
2013-07-23 21:35:00,79.5,32.3,29.62,North,-999,0.0,0.0,18,0.00,,,-99.99,0,WeatherLink 5.7,2013-07-24 03:35:00,
2013-07-23 21:40:00,79.1,30.5,29.62,East,90,0.0,1.0,17,0.00,,,-99.99,0,WeatherLink 5.7,2013-07-24 03:40:00,
2013-07-23 21:55:00,76.9,31.5,29.64,North,-999,0.0,0.0,19,0.00,,,-99.99,0,WeatherLink 5.7,2013-07-24 03:55:00,
2013-07-23 22:00:00,76.0,30.7,29.64,ESE,112,0.0,1.0,19,0.00,,,-99.99,0,WeatherLink 5.7,2013-07-24 04:00:00,
2013-07-23 22:05:00,75.5,30.3,29.66,North,-999,0.0,0.0,19,0.00,,,-99.99,0,WeatherLink 5.7,2013-07-24 04:05:00,
2013-07-23 22:15:00,75.3,30.2,29.66,North,-999,0.0,0.0,19,0.00,,,-99.99,0,WeatherLink 5.7,2013-07-24 04:15:00,
2013-07-23 22:20:00,75.1,30.0,29.62,ESE,112,0.0,2.0,19,0.00,,,-99.99,0,WeatherLink 5.7,2013-07-24 04:20:00,
2013-07-23 22:25:00,75.1,31.3,29.62,ESE,112,0.0,1.0,20,0.00,,,-99.99,0,WeatherLink 5.7,2013-07-24 04:25:00,
2013-07-23 22:35:00,74.8,29.8,29.61,North,-999,0.0,0.0,19,0.00,,,-99.99,0,WeatherLink 5.7,2013-07-24 04:35:00,
2013-07-23 22:50:00,73.6,30.0,29.63,SSW,202,0.0,1.0,20,0.00,,,-99.99,0,WeatherLink 5.7,2013-07-24 04:50:00,
2013-07-23 23:00:00,73.0,29.5,29.63,SE,135,0.0,1.0,20,0.00,,,-99.99,0,WeatherLink 5.7,2013-07-24 05:00:00,
2013-07-23 23:10:00,72.5,29.1,29.63,SE,135,0.0,1.0,20,0.00,,,-99.99,0,WeatherLink 5.7,2013-07-24 05:10:00,
2013-07-23 23:20:00,72.4,30.2,29.61,North,-999,0.0,0.0,21,0.00,,,-99.99,0,WeatherLink 5.7,2013-07-24 05:20:00,
2013-07-23 23:30:00,71.8,30.9,29.61,North,-999,0.0,0.0,22,0.00,,,-99.99,0,WeatherLink 5.7,2013-07-24 05:30:00,
2013-07-23 23:45:00,71.2,30.4,29.61,SE,135,0.0,1.0,22,0.00,,,-99.99,0,WeatherLink 5.7,2013-07-24 05:45:00,
2013-07-23 23:55:00,70.5,30.9,29.62,North,-999,0.0,0.0,23,0.00,,,-99.99,0,WeatherLink 5.7,2013-07-24 05:55:00,